When you browse on this site, cookies collect data to enhance your experience and personalize the content and advertising you see.
Visit our Privacy Policy to learn more. By continuing to use the site, you agree to this use of cookies and data.
  • în România
  • Lista ţărilor
  • Pe 7 zile
  • Temperatura apei
  • Meteo pe hartă
  • Widget-uri
  • user-avatar
    Intrare

    Meteo pe oră la Ramadi

    Astăzi, 18 Februarie, Marţi

    Timp Temperatura Precipitaţii Vânt Presiune Umiditate
    00:00 +12°C° 0 mm 4 m/s 760 mmHg 70%
    01:00 +12°C° 0 mm 4 m/s 760 mmHg 72%
    02:00 +12°C° 0 mm 4 m/s 760 mmHg 74%
    03:00 +11°C° 0 mm 3 m/s 759 mmHg 76%
    04:00 +11°C° 0 mm 3 m/s 760 mmHg 77%
    05:00 +11°C° 0 mm 3 m/s 760 mmHg 79%
    06:00 +11°C° 0 mm 3 m/s 760 mmHg 80%
    07:00 +12°C° 0 mm 3 m/s 760 mmHg 77%
    08:00 +12°C° 0 mm 3 m/s 761 mmHg 73%
    09:00 +13°C° 0 mm 3 m/s 761 mmHg 70%
    10:00 +14°C° 0 mm 3 m/s 761 mmHg 65%
    11:00 +17°C° 0 mm 3 m/s 761 mmHg 60%
    12:00 +18°C° 0 mm 3 m/s 760 mmHg 56%
    13:00 +18°C° 0 mm 3 m/s 760 mmHg 55%
    14:00 +19°C° 0 mm 3 m/s 759 mmHg 53%
    15:00 +19°C° 0 mm 3 m/s 758 mmHg 52%
    16:00 +19°C° 0 mm 3 m/s 758 mmHg 54%
    17:00 +19°C° 0 mm 3 m/s 758 mmHg 57%
    18:00 +18°C° 0 mm 3 m/s 758 mmHg 59%
    19:00 +18°C° 0.1 mm 3 m/s 758 mmHg 60%
    20:00 +18°C° 0.1 mm 3 m/s 758 mmHg 62%
    21:00 +18°C° 0.1 mm 3 m/s 758 mmHg 63%
    22:00 +18°C° 0.1 mm 3 m/s 758 mmHg 64%
    23:00 +17°C° 0.1 mm 3 m/s 758 mmHg 64%

    Mâine, 19 Februarie, Miercuri

    Timp Temperatura Precipitaţii Vânt Presiune Umiditate
    00:00 +17°C° 0.1 mm 4 m/s 757 mmHg 64%
    01:00 +17°C° 0 mm 4 m/s 757 mmHg 65%
    02:00 +17°C° 0 mm 4 m/s 757 mmHg 66%
    03:00 +15°C° 0 mm 4 m/s 756 mmHg 67%
    04:00 +15°C° 0 mm 4 m/s 756 mmHg 68%
    05:00 +15°C° 0 mm 5 m/s 755 mmHg 69%
    06:00 +15°C° 0 mm 5 m/s 755 mmHg 71%
    07:00 +15°C° 0.1 mm 5 m/s 755 mmHg 67%
    08:00 +16°C° 0.1 mm 5 m/s 755 mmHg 64%
    09:00 +16°C° 0.1 mm 5 m/s 754 mmHg 61%
    10:00 +18°C° 0 mm 4 m/s 754 mmHg 57%
    11:00 +19°C° 0 mm 4 m/s 753 mmHg 53%
    12:00 +20°C° 0 mm 4 m/s 752 mmHg 49%
    13:00 +22°C° 0 mm 4 m/s 751 mmHg 44%
    14:00 +23°C° 0 mm 4 m/s 750 mmHg 39%
    15:00 +25°C° 0 mm 4 m/s 749 mmHg 34%
    16:00 +23°C° 0 mm 4 m/s 749 mmHg 39%
    17:00 +22°C° 0 mm 4 m/s 748 mmHg 43%
    18:00 +21°C° 0 mm 4 m/s 748 mmHg 47%
    19:00 +20°C° 0 mm 4 m/s 748 mmHg 53%
    20:00 +19°C° 0 mm 4 m/s 748 mmHg 59%
    21:00 +18°C° 0 mm 4 m/s 748 mmHg 65%
    22:00 +16°C° 0 mm 5 m/s 748 mmHg 69%
    23:00 +15°C° 0 mm 5 m/s 748 mmHg 73%

    Poimâine, 20 Februarie, Joi

    Timp Temperatura Precipitaţii Vânt Presiune Umiditate
    00:00 +15°C° 0 mm 5 m/s 748 mmHg 77%
    01:00 +14°C° 0 mm 5 m/s 748 mmHg 78%
    02:00 +14°C° 0 mm 4 m/s 748 mmHg 78%
    03:00 +14°C° 0 mm 3 m/s 748 mmHg 79%
    04:00 +13°C° 0.4 mm 4 m/s 749 mmHg 81%
    05:00 +13°C° 0.4 mm 4 m/s 749 mmHg 84%
    06:00 +13°C° 0.4 mm 4 m/s 749 mmHg 86%
    07:00 +13°C° 0.2 mm 5 m/s 750 mmHg 83%
    08:00 +14°C° 0.2 mm 6 m/s 751 mmHg 80%
    09:00 +14°C° 0.2 mm 7 m/s 752 mmHg 77%
    10:00 +15°C° 0 mm 8 m/s 752 mmHg 71%
    11:00 +16°C° 0 mm 8 m/s 752 mmHg 65%
    12:00 +16°C° 0 mm 9 m/s 752 mmHg 59%
    13:00 +17°C° 0 mm 9 m/s 752 mmHg 54%
    14:00 +18°C° 0 mm 9 m/s 752 mmHg 49%
    15:00 +19°C° 0 mm 10 m/s 752 mmHg 45%
    16:00 +18°C° 0 mm 8 m/s 752 mmHg 45%
    17:00 +18°C° 0 mm 7 m/s 753 mmHg 46%
    18:00 +17°C° 0 mm 6 m/s 753 mmHg 47%
    19:00 +17°C° 0 mm 5 m/s 754 mmHg 50%
    20:00 +16°C° 0 mm 5 m/s 754 mmHg 53%
    21:00 +15°C° 0 mm 5 m/s 755 mmHg 56%
    22:00 +15°C° 0 mm 4 m/s 755 mmHg 59%
    23:00 +15°C° 0 mm 4 m/s 755 mmHg 61%

    21 Februarie, Vineri

    Timp Temperatura Precipitaţii Vânt Presiune Umiditate
    00:00 +14°C° 0 mm 4 m/s 756 mmHg 64%
    01:00 +14°C° 0 mm 4 m/s 756 mmHg 66%
    02:00 +13°C° 0 mm 5 m/s 756 mmHg 68%
    03:00 +13°C° 0 mm 5 m/s 756 mmHg 70%
    04:00 +13°C° 0 mm 4 m/s 757 mmHg 71%
    05:00 +12°C° 0 mm 4 m/s 757 mmHg 72%
    06:00 +12°C° 0 mm 4 m/s 757 mmHg 73%
    07:00 +12°C° 0 mm 4 m/s 758 mmHg 70%
    08:00 +13°C° 0 mm 4 m/s 758 mmHg 67%
    09:00 +14°C° 0 mm 3 m/s 759 mmHg 64%
    16:00 +20°C° 0 mm 1 m/s 757 mmHg 43%
    17:00 +20°C° 0 mm 1 m/s 757 mmHg 45%
    18:00 +20°C° 0 mm 1 m/s 757 mmHg 47%
    19:00 +18°C° 0 mm 2 m/s 757 mmHg 49%
    20:00 +18°C° 0 mm 2 m/s 757 mmHg 51%
    21:00 +17°C° 0 mm 3 m/s 757 mmHg 52%
    22:00 +17°C° 0 mm 3 m/s 757 mmHg 52%
    23:00 +17°C° 0 mm 3 m/s 757 mmHg 53%

    22 Februarie, Sâmbătă

    Timp Temperatura Precipitaţii Vânt Presiune Umiditate
    00:00 +16°C° 0 mm 3 m/s 757 mmHg 53%
    01:00 +16°C° 0 mm 3 m/s 757 mmHg 54%
    02:00 +16°C° 0 mm 3 m/s 756 mmHg 55%
    03:00 +14°C° 0 mm 3 m/s 756 mmHg 56%
    04:00 +14°C° 0 mm 3 m/s 756 mmHg 58%
    05:00 +14°C° 0 mm 3 m/s 756 mmHg 59%
    06:00 +13°C° 0 mm 3 m/s 756 mmHg 60%
    07:00 +14°C° 0 mm 4 m/s 756 mmHg 56%
    08:00 +15°C° 0 mm 5 m/s 756 mmHg 53%
    09:00 +16°C° 0 mm 6 m/s 756 mmHg 49%
    10:00 +19°C° 0 mm 6 m/s 756 mmHg 44%
    11:00 +20°C° 0 mm 7 m/s 755 mmHg 39%
    12:00 +22°C° 0 mm 7 m/s 755 mmHg 35%
    13:00 +21°C° 0.2 mm 6 m/s 754 mmHg 35%
    14:00 +21°C° 0.2 mm 6 m/s 754 mmHg 35%
    15:00 +21°C° 0.2 mm 5 m/s 753 mmHg 35%
    16:00 +20°C° 1 mm 6 m/s 754 mmHg 45%
    17:00 +17°C° 1 mm 7 m/s 754 mmHg 55%
    18:00 +16°C° 1 mm 8 m/s 754 mmHg 64%
    19:00 +15°C° 0.2 mm 8 m/s 755 mmHg 67%
    20:00 +15°C° 0.2 mm 8 m/s 755 mmHg 71%
    21:00 +13°C° 0.2 mm 8 m/s 756 mmHg 74%
    22:00 +14°C° 0 mm 7 m/s 756 mmHg 75%
    23:00 +14°C° 0 mm 7 m/s 756 mmHg 76%

    23 Februarie, Duminică

    Timp Temperatura Precipitaţii Vânt Presiune Umiditate
    00:00 +14°C° 0 mm 6 m/s 756 mmHg 77%
    01:00 +13°C° 0 mm 6 m/s 756 mmHg 79%
    02:00 +13°C° 0 mm 6 m/s 755 mmHg 81%
    03:00 +11°C° 0 mm 6 m/s 755 mmHg 83%
    04:00 +12°C° 0 mm 5 m/s 756 mmHg 84%
    05:00 +12°C° 0 mm 5 m/s 756 mmHg 85%
    06:00 +11°C° 0 mm 4 m/s 756 mmHg 86%
    07:00 +12°C° 0 mm 4 m/s 756 mmHg 82%
    08:00 +13°C° 0 mm 4 m/s 757 mmHg 77%
    09:00 +13°C° 0 mm 3 m/s 757 mmHg 73%
    10:00 +16°C° 0 mm 3 m/s 757 mmHg 67%
    11:00 +17°C° 0 mm 3 m/s 757 mmHg 60%
    12:00 +18°C° 0 mm 3 m/s 757 mmHg 54%
    13:00 +19°C° 0 mm 3 m/s 757 mmHg 50%
    14:00 +19°C° 0 mm 4 m/s 756 mmHg 46%
    15:00 +20°C° 0 mm 4 m/s 756 mmHg 41%
    16:00 +19°C° 0 mm 3 m/s 756 mmHg 43%
    17:00 +19°C° 0 mm 3 m/s 756 mmHg 45%
    18:00 +18°C° 0 mm 2 m/s 756 mmHg 47%
    19:00 +18°C° 0 mm 2 m/s 756 mmHg 50%
    20:00 +18°C° 0 mm 1 m/s 756 mmHg 52%
    21:00 +18°C° 0 mm 1 m/s 757 mmHg 55%
    22:00 +16°C° 0 mm 1 m/s 757 mmHg 56%
    23:00 +16°C° 0 mm 1 m/s 757 mmHg 58%
    Arată mai mult